[[{"header":{"parameterUnit":"m.s-1","parameterCategory":1,"la1":30.2991,"la2":30.254,"lo1":-89.0895,"lo2":-89.0444,"dy":0.0017,"dx":0.0017,"nx":28,"ny":28,"refTime":"2025-03-20T09:00:00:Z","depth":0,"parameterNumber":2,"parameterNumberName":"U-component_of_WINDS"},"data":[0,0,0,0,0,0,0,0,0,0,0,0,0,0,0,0,0,0,0,0,0,0,0,0,0,0,0,0,0,0,0,0,0,0,0,0,0,0,0,0,0,0,0,0,0,0,0,0,0,0,0,0,0,0,0,0,0,0,-1.5046,-1.5047,0,-1.5079,-1.5079,-1.5079,-1.4967,-1.4964,-1.496,-1.4957,-1.4994,-1.4998,-1.5002,0,0,0,0,0,0,0,0,0,0,0,0,0,-1.4889,-1.4893,-1.5046,-1.5047,-1.5047,-1.5079,-1.5079,-1.5079,-1.4968,-1.4964,-1.496,-1.4956,-1.4993,-1.4998,-1.5003,0,0,0,0,0,0,0,0,0,0,0,0,0,-1.4943,-1.4894,-1.5046,-1.4995,-1.4991,-1.5079,-1.5079,-1.508,-1.4969,-1.4964,-1.4958,-1.4954,-1.4991,-1.4997,-1.5003,-1.5143,0,0,-1.5022,-1.5025,0,0,0,0,0,0,0,0,-1.4941,-1.4949,-1.5002,-1.4999,-1.4994,-1.5014,-1.5037,-1.5101,-1.497,-1.4977,-1.4957,-1.4951,-1.5005,-1.501,-1.5027,-1.5145,-1.5146,-1.5023,-1.5026,-1.5029,-1.5031,0,0,0,0,0,0,0,-1.4937,-1.4947,-1.5059,-1.5003,-1.4998,-1.4971,-1.4973,-1.5049,-1.5019,-1.4976,-1.4968,-1.4973,-1.5002,-1.5021,-1.5027,-1.5147,-1.5023,-1.5028,-1.5032,-1.5034,-1.5377,-1.5382,0,0,0,0,0,0,-1.494,-1.4945,-1.5058,-1.506,-1.4954,-1.4978,-1.498,-1.5013,-1.5018,-1.5014,-1.4978,-1.4968,-1.5013,-1.502,-1.5028,-1.519,-1.5029,-1.5035,-1.5038,-1.5372,-1.5378,-1.5384,0,0,0,0,0,0,-1.4937,-1.4951,-1.5057,-1.5,-1.5012,-1.4986,-1.5023,-1.5016,-1.5035,-1.5019,-1.5013,-1.5003,-1.5009,-1.5019,-1.5114,-1.5189,-1.5038,-1.5043,-1.5365,-1.5374,-1.5381,-1.5516,0,0,0,0,0,0,-1.4933,-1.495,-1.5003,-1.5002,-1.5015,-1.5143,-1.5028,-1.502,-1.5046,-1.5033,-1.5041,-1.5038,-1.5006,-1.5105,-1.512,-1.5195,-1.5048,-1.5359,-1.5369,-1.5379,-1.5505,-1.5528,-1.5547,0,0,0,0,0,-1.4927,-1.5041,-1.5006,-1.5021,-1.5081,-1.5147,-1.5155,-1.5115,-1.5052,-1.5105,-1.5094,-1.5037,-1.5179,-1.5116,-1.5132,-1.521,-1.5354,-1.5366,-1.5378,-1.5495,-1.5523,-1.5547,0,0,0,0,0,0,-1.5054,-1.504,-1.5002,-1.5119,-1.5135,-1.5128,-1.5194,-1.5147,-1.5182,-1.5169,-1.5119,-1.5122,-1.5226,-1.5227,-1.5158,-1.5344,-1.5255,-1.5271,-1.5339,-1.5366,-1.5386,-1.5384,-1.5053,0,0,0,0,0,-1.5095,-1.515,-1.5135,-1.524,-1.525,-1.5221,-1.5248,-1.5216,-1.5231,-1.5238,-1.5234,-1.5252,-1.53,-1.5333,-1.5376,-1.5504,-1.5503,-1.5565,-1.5586,-1.5604,-1.5618,-1.5684,-1.571,-1.5424,-1.5424,-1.5424,0,0,-1.5182,-1.5181,-1.5219,-1.5265,-1.5274,-1.5332,-1.5227,-1.5294,-1.5336,-1.5249,-1.5337,-1.5335,-1.5351,-1.5462,-1.5511,-1.5467,-1.5697,-1.5619,-1.5634,-1.5638,-1.5699,-1.5726,-1.575,-1.5432,-1.5431,-1.5429,0,0,-1.5368,-1.5374,-1.546,-1.547,-1.5483,-1.5463,-1.5484,-1.5484,-1.5478,-1.5566,-1.55,-1.555,-1.5635,-1.5648,-1.5666,-1.5854,-1.5803,-1.587,-1.5981,-1.6045,-1.6068,-1.6088,-1.6153,-1.6178,-1.5884,-1.5884,-1.5885,0,-1.5475,-1.5558,-1.5511,-1.5581,-1.5602,-1.5523,-1.561,-1.5622,-1.565,-1.5667,-1.5616,-1.5718,-1.5724,-1.5836,-1.5881,-1.5899,-1.5921,-1.5869,-1.6068,-1.6088,-1.6105,-1.6167,-1.6192,-1.5892,-1.5891,-1.5891,-1.589,0,-1.5687,-1.5746,-1.5814,-1.584,-1.5869,-1.5948,-1.5912,-1.5948,-1.5912,-1.5896,-1.5986,-1.5989,-1.603,-1.6055,-1.6022,-1.6162,-1.6133,-1.6077,-1.5987,-1.6141,-1.6199,-1.6222,-1.5904,-1.5901,-1.5898,-1.5896,0,0,-1.5957,-1.5953,-1.5979,-1.5988,-1.5996,-1.6041,-1.6114,-1.6153,-1.6183,-1.6205,-1.6265,-1.6336,-1.6282,-1.6303,-1.627,-1.6327,-1.6473,-1.6262,-1.6262,-1.63,-1.6625,-1.6668,-1.6696,-1.6439,-1.6443,-1.6447,-1.6623,0,-1.6139,-1.6263,-1.6221,-1.6348,-1.6401,-1.6325,-1.6389,-1.64,-1.6387,-1.643,-1.6416,-1.6467,-1.6393,-1.6404,-1.6457,-1.6444,-1.6538,-1.6431,-1.6494,-1.6497,-1.6492,-1.6726,-1.6772,-1.6939,-1.6646,-1.665,-1.6652,0,-1.6368,-1.6396,-1.6527,-1.6522,-1.6543,-1.6601,-1.6632,-1.6674,-1.6685,-1.6671,-1.6692,-1.6647,-1.6718,-1.6628,-1.6725,-1.6654,-1.6677,-1.6674,-1.668,-1.6684,-1.6584,-1.6736,-1.6991,-1.7016,-1.6688,-1.6685,-1.6682,0,-1.655,-1.662,-1.6706,-1.6717,-1.6715,-1.6757,-1.6758,-1.6764,-1.6789,-1.6816,-1.6831,-1.6867,-1.6887,-1.6915,-1.688,-1.6818,-1.6982,-1.6889,-1.6972,-1.6973,-1.7011,-1.7009,-1.7272,-1.7027,-1.7027,-1.7026,-1.7026,0,-1.6757,-1.684,-1.6787,-1.6841,-1.6931,-1.6882,-1.6973,-1.6966,-1.6971,-1.7021,-1.6958,-1.7007,-1.6958,-1.7003,-1.6976,-1.706,-1.7069,-1.706,-1.7052,-1.7065,-1.7066,-1.708,-1.7067,-1.7033,-1.7031,-1.703,-1.7029,0,-1.6976,-1.6944,-1.7033,-1.7022,-1.7021,-1.7088,-1.7078,-1.7127,-1.7108,-1.7173,-1.7185,-1.7157,-1.7205,-1.7173,-1.7223,-1.7204,-1.7313,-1.7289,-1.7309,-1.7302,-1.7386,-1.7378,-1.7667,-1.7702,-1.7436,-1.7438,-1.744,0,-1.711,-1.7171,-1.7166,-1.7194,-1.7198,-1.7246,-1.7269,-1.7223,-1.7251,-1.7266,-1.7313,-1.7355,-1.7387,-1.7468,-1.7452,-1.7489,-1.7465,-1.7563,-1.747,-1.7481,-1.7465,-1.7461,-1.7466,-1.7582,-1.7586,-1.7588,-1.759,0,-1.7351,-1.7331,-1.7367,-1.7398,-1.7428,-1.745,-1.7467,-1.7494,-1.7447,-1.7481,-1.7529,-1.7553,-1.7602,-1.7645,-1.7675,-1.7676,-1.7626,-1.7619,-1.764,-1.7654,-1.7662,-1.7658,-1.7359,-1.7613,-1.7611,-1.7609,-1.7608,-1.7607,-1.753,-1.758,-1.7583,-1.7625,-1.7632,-1.7649,-1.7693,-1.7679,-1.7717,-1.7752,-1.7722,-1.7779,-1.7786,-1.782,-1.7828,-1.7871,-1.7831,-1.7862,-1.7869,-1.7878,-1.7888,-1.7656,-1.7877,-1.7876,-1.7875,-1.7875,-1.7874,0,-1.7766,-1.7764,-1.7803,-1.7827,-1.786,-1.7807,-1.7823,-1.7854,-1.7904,-1.7914,-1.7945,-1.7999,-1.8039,-1.8025,-1.806,-1.8098,-1.8075,-1.8109,-1.8105,-1.8106,-1.7923,-1.7901,-1.8126,-1.8126,-1.8126,-1.8126,-1.8126,-1.8126,-1.7893,-1.7974,-1.7954,-1.8038,-1.8034,-1.8088,-1.8101,-1.8116,-1.8123,-1.8185,-1.8217,-1.8207,-1.8207,-1.8241,-1.8276,-1.827,-1.8286,-1.8328,-1.8314,-1.8144,-1.8119,-1.8095,-1.8074,-1.8332,-1.8332,-1.8493,-1.8494,-1.8495]},{"header":{"parameterUnit":"m.s-1","parameterCategory":1,"la1":30.2991,"la2":30.254,"lo1":-89.0895,"lo2":-89.0444,"dy":0.0017,"dx":0.0017,"nx":28,"ny":28,"refTime":"2025-03-20T09:00:00:Z","depth":0,"parameterNumber":3,"parameterNumberName":"V-component_of_WINDS"},"data":[0,0,0,0,0,0,0,0,0,0,0,0,0,0,0,0,0,0,0,0,0,0,0,0,0,0,0,0,0,0,0,0,0,0,0,0,0,0,0,0,0,0,0,0,0,0,0,0,0,0,0,0,0,0,0,0,0,0,-3.8301,-3.8302,0,-3.8396,-3.8397,-3.8398,-3.8345,-3.8343,-3.834,-3.8338,-3.8433,-3.8438,-3.8443,0,0,0,0,0,0,0,0,0,0,0,0,0,-3.807,-3.8074,-3.8301,-3.8302,-3.8303,-3.8396,-3.8397,-3.8398,-3.8346,-3.8343,-3.8339,-3.8336,-3.8432,-3.8438,-3.8444,0,0,0,0,0,0,0,0,0,0,0,0,0,-3.8168,-3.8076,-3.83,-3.8288,-3.8288,-3.8396,-3.8397,-3.8399,-3.8346,-3.8343,-3.8339,-3.8335,-3.843,-3.8437,-3.8444,-3.8569,0,0,-3.8467,-3.8471,0,0,0,0,0,0,0,0,-3.8162,-3.8176,-3.8289,-3.8289,-3.8289,-3.8355,-3.8351,-3.8456,-3.8347,-3.8324,-3.8338,-3.8333,-3.841,-3.8419,-3.8446,-3.8574,-3.8578,-3.8468,-3.8473,-3.8476,-3.8478,0,0,0,0,0,0,0,-3.8156,-3.8172,-3.8338,-3.829,-3.8291,-3.8276,-3.8286,-3.837,-3.8388,-3.8326,-3.8322,-3.8334,-3.841,-3.8438,-3.8447,-3.8579,-3.8468,-3.8474,-3.8479,-3.8482,-3.8811,-3.8815,0,0,0,0,0,0,-3.815,-3.8167,-3.8335,-3.8341,-3.8215,-3.8284,-3.8295,-3.8338,-3.8387,-3.8391,-3.8338,-3.8332,-3.8428,-3.8439,-3.8451,-3.8598,-3.8476,-3.8483,-3.8487,-3.8807,-3.8812,-3.8817,0,0,0,0,0,0,-3.8145,-3.8166,-3.8331,-3.8253,-3.8273,-3.8292,-3.8341,-3.8342,-3.837,-3.8396,-3.8398,-3.8364,-3.8425,-3.844,-3.8539,-3.86,-3.8486,-3.8493,-3.8802,-3.8808,-3.8814,-3.8894,0,0,0,0,0,0,-3.8139,-3.8164,-3.8213,-3.8255,-3.8277,-3.842,-3.8345,-3.8346,-3.8384,-3.8377,-3.8421,-3.8425,-3.8423,-3.8529,-3.8547,-3.8609,-3.8499,-3.8796,-3.8805,-3.8812,-3.8886,-3.8903,-3.8917,0,0,0,0,0,-3.8131,-3.8232,-3.8216,-3.8236,-3.8339,-3.8424,-3.8437,-3.8433,-3.8389,-3.8437,-3.8453,-3.8424,-3.8591,-3.8539,-3.8559,-3.8624,-3.8792,-3.8802,-3.8812,-3.888,-3.8899,-3.8916,0,0,0,0,0,0,-3.8197,-3.8237,-3.822,-3.8338,-3.8378,-3.8415,-3.8476,-3.8455,-3.8508,-3.8499,-3.8491,-3.8502,-3.8605,-3.8625,-3.8566,-3.8746,-3.8685,-3.8699,-3.8729,-3.8748,-3.8763,-3.8756,-3.8505,0,0,0,0,0,-3.8225,-3.8292,-3.8323,-3.8424,-3.8445,-3.8457,-3.8494,-3.8487,-3.8528,-3.8545,-3.8568,-3.8608,-3.8669,-3.871,-3.8768,-3.8889,-3.8897,-3.8943,-3.8958,-3.8971,-3.8983,-3.9045,-3.9066,-3.8848,-3.8848,-3.8848,0,0,-3.8285,-3.8315,-3.8357,-3.8438,-3.8468,-3.8536,-3.8472,-3.8547,-3.8596,-3.8556,-3.8651,-3.8669,-3.8713,-3.8823,-3.8873,-3.8843,-3.9044,-3.8983,-3.8993,-3.8998,-3.9057,-3.9078,-3.9096,-3.8854,-3.8853,-3.8852,0,0,-3.8427,-3.8457,-3.8543,-3.8575,-3.8621,-3.8628,-3.8649,-3.8689,-3.8699,-3.8794,-3.8765,-3.8823,-3.893,-3.8962,-3.8992,-3.9143,-3.9117,-3.9162,-3.9241,-3.9302,-3.9319,-3.9335,-3.9387,-3.9406,-3.9174,-3.9175,-3.9175,0,-3.8494,-3.8596,-3.859,-3.8667,-3.8702,-3.8669,-3.8754,-3.8785,-3.8848,-3.8872,-3.8838,-3.8969,-3.8997,-3.9112,-3.9149,-3.9175,-3.9197,-3.9157,-3.9318,-3.9333,-3.9347,-3.9396,-3.9416,-3.918,-3.9179,-3.9179,-3.9178,0,-3.8675,-3.8746,-3.881,-3.8871,-3.8913,-3.8995,-3.8999,-3.9043,-3.9032,-3.9042,-3.9138,-3.917,-3.9232,-3.9259,-3.925,-3.9373,-3.9353,-3.9318,-3.9256,-3.9373,-3.9419,-3.9438,-3.9187,-3.9185,-3.9183,-3.9182,0,0,-3.8863,-3.8918,-3.8942,-3.8968,-3.9016,-3.907,-3.9148,-3.9209,-3.9245,-3.929,-3.9354,-3.9443,-3.9411,-3.9445,-3.9439,-3.9493,-3.9608,-3.9451,-3.9452,-3.9478,-3.9743,-3.9767,-3.9789,-3.9591,-3.9595,-3.9598,-3.9738,0,-3.9006,-3.9144,-3.914,-3.9267,-3.9331,-3.9299,-3.9367,-3.9403,-3.9414,-3.9468,-3.948,-3.9543,-3.9497,-3.9517,-3.9569,-3.9583,-3.9661,-3.9573,-3.9649,-3.9652,-3.9638,-3.9814,-3.9841,-3.9972,-3.9756,-3.976,-3.9762,0,-3.9193,-3.9242,-3.9376,-3.9412,-3.9439,-3.95,-3.9554,-3.9608,-3.9647,-3.965,-3.9688,-3.9672,-3.9749,-3.9686,-3.9791,-3.9731,-3.9762,-3.9774,-3.9778,-3.9784,-3.9713,-3.9823,-4.0014,-4.0033,-3.9791,-3.9788,-3.9786,0,-3.9314,-3.9414,-3.9506,-3.953,-3.9575,-3.9618,-3.9638,-3.9674,-3.971,-3.9757,-3.978,-3.9836,-3.9866,-3.9909,-3.9908,-3.9862,-4.0014,-3.995,-4.0017,-4.0017,-4.005,-4.0048,-4.0247,-4.0073,-4.0072,-4.0072,-4.0072,0,-3.9474,-3.9557,-3.9561,-3.9618,-3.9708,-3.9702,-3.9791,-3.9807,-3.9838,-3.9896,-3.9872,-3.9927,-3.9923,-3.9978,-3.9977,-4.0063,-4.0077,-4.0081,-4.008,-4.0083,-4.0082,-4.0102,-4.0093,-4.0077,-4.0076,-4.0075,-4.0074,0,-3.9624,-3.9631,-3.9729,-3.9763,-3.9773,-3.9838,-3.9866,-3.9919,-3.9927,-4.0,-4.0017,-4.003,-4.0093,-4.0096,-4.0169,-4.0168,-4.0272,-4.0262,-4.0259,-4.0257,-4.0323,-4.0316,-4.0541,-4.0569,-4.0377,-4.0379,-4.0381,0,-3.9726,-3.9788,-3.9828,-3.9865,-3.9888,-3.9949,-3.9985,-3.998,-4.0019,-4.0067,-4.0113,-4.0174,-4.0222,-4.0324,-4.0339,-4.0393,-4.0383,-4.0458,-4.0391,-4.0391,-4.0382,-4.0378,-4.0383,-4.0471,-4.0473,-4.0474,-4.0476,0,-3.9904,-3.9904,-3.9957,-4.0012,-4.0056,-4.0099,-4.0138,-4.017,-4.0169,-4.0214,-4.0277,-4.0315,-4.0388,-4.0448,-4.0501,-4.052,-4.0498,-4.0497,-4.0515,-4.0518,-4.0513,-4.0515,-4.0293,-4.0492,-4.049,-4.0489,-4.0488,-4.0487,-4.0032,-4.0085,-4.0121,-4.0181,-4.021,-4.0247,-4.0297,-4.0311,-4.0364,-4.0424,-4.0417,-4.0488,-4.0523,-4.0591,-4.0615,-4.0669,-4.0643,-4.067,-4.0676,-4.0683,-4.0689,-4.0505,-4.0679,-4.0678,-4.0678,-4.0678,-4.0677,0,-4.0208,-4.0228,-4.0284,-4.0339,-4.0386,-4.036,-4.0402,-4.0442,-4.0505,-4.0539,-4.0587,-4.0659,-4.0716,-4.0735,-4.079,-4.0829,-4.082,-4.0844,-4.084,-4.0844,-4.071,-4.0688,-4.085,-4.085,-4.085,-4.085,-4.085,-4.085,-4.0304,-4.0392,-4.0395,-4.0496,-4.0516,-4.0585,-4.0611,-4.0644,-4.0671,-4.0753,-4.08,-4.0812,-4.0839,-4.0896,-4.0946,-4.095,-4.0971,-4.0999,-4.0998,-4.0872,-4.0854,-4.0838,-4.0817,-4.1004,-4.1004,-4.1128,-4.1129,-4.113]}]]